Regional Weather Roundup
Issued by NWS Cleveland, OH

Home | Current Version | Previous Version | Text Only | Print | Product List | Glossary Off
Versions: 1 2 3 4 5 6 7 8 9 10 11 12 13 14 15 16 17 18 19 20 21 22 23 24 25 26 27 28 29 30 31 32 33 34 35 36 37 38 39 40 41 42 43 44 45 46 47 48 49 50

000
ASUS41 KCLE 202000
RWRCLE
OHIO REGIONAL WEATHER ROUNDUP
NATIONAL WEATHER SERVICE WILMINGTON, OH
300 PM EST MON FEB 20 2017

NOTE: "FAIR" INDICATES FEW OR NO CLOUDS BELOW 12,000 FEET WITH NO
SIGNIFICANT WEATHER AND/OR OBSTRUCTIONS TO VISIBILITY.

OHZ001>008-015>018-024>027-034-035-043-044-202100-
   NORTHWEST OHIO

CITY           SKY/WX    TMP DP  RH WIND       PRES   REMARKS
DEFIANCE       NOT AVBL
FINDLAY        FAIR      64  35  34 SE6       30.17S
TOLEDO EXPRESS FAIR      56  35  45 E10G16    30.20S
TOLEDO EXEC    FAIR      50  35  56 E12       30.22S
LIMA           FAIR      64  39  39 S7        30.16R
$$

OHZ009>014-019>023-028>033-038-089-202100-
   NORTHEAST OHIO

CITY           SKY/WX    TMP DP  RH WIND       PRES   REMARKS
CLE-HOPKINS    CLOUDY    50  32  50 N10       30.24F
CLE-LAKEFRONT  FAIR      39  34  82 NE13      30.23F
CUY CO. ARPT   MOSUNNY   57  37  47 N9        30.23F
LORAIN-ELYRIA  FAIR      54  33  45 E12       30.21F
ASHTABULA      FAIR      51  34  52 N8        30.25S
AKRON-CANTON   PTSUNNY   60  33  36 S5        30.21F
WOOSTER        NOT AVBL
MANSFIELD      FAIR      61  37  41 E9        30.18F
YOUNGSTOWN     PTSUNNY   58  28  32 CALM      30.24F
$$

OHZ042-051>053-060>062-070>072-077>081-202100-
  SOUTHWEST OHIO

CITY           SKY/WX    TMP DP  RH WIND       PRES   REMARKS
CINC-COVINGTON PTSUNNY   63  50  62 E8        30.14F
CINC-LUNKEN    FAIR      64  49  57 S8        30.16F
HAMILTON       FAIR      64  46  52 VRB6      30.16F
DAYTON         NOT AVBL
WRIGHT-PAT AFB FAIR      63  42  46 SE7       30.15F
DAYTON GENERAL FAIR      65  41  41 SE12      30.14F
WILMINGTON     FAIR      63  43  48 SE7       30.15F
$$

OHZ036-037-039>041-045>050-054>059-063>069-073>076-082>088-202100-
  CENTRAL AND SOUTHEAST OHIO

CITY           SKY/WX    TMP DP  RH WIND       PRES   REMARKS
COLUMBUS       PTSUNNY   63  41  44 SE7       30.17F
OSU AIRPORT    FAIR      60  43  53 SE6       30.18F
BOLTON FIELD   SUNNY     61  48  63 SE6       30.19F
RICKENBACK AFB NOT AVBL
NEWARK         FAIR      58  45  62 N6        30.19F
MARION         FAIR      63  37  38 VRB5      30.18F
LANCASTER      FAIR      65  42  43 E8        30.18F
ZANESVILLE     FAIR      57  46  66 NE6       30.21F
NEW PHILLY     FAIR      58  42  55 VRB3      30.21F
$$



USA.gov is the U.S. government's official web portal to all federal, state and local government web resources and services.